sat.trackr.live / text

‹ back to catalog

2025-234B

NORAD 66054 · 2025-234B

PAYLOAD ACTIVE UNKNOWN

§ Identity

Operator
Country
PAKI
Launch date
2025-10-19
Launch site
JSC
Launch vehicle
Mass (kg)
RCS (m²)

External: N2YO · Heavens-Above · Gunter

§ Orbital elements

Epoch: 2026-09-20T10:18:51.647616Z

Period
94.62 min
Inclination
97.4674°
Eccentricity
0.0012300
Mean motion
15.21838518 rev/d
Perigee alt
491.8 km
Apogee alt
508.8 km
Semi-major
6,878.4 km
B*
1.4715e-4
RAAN
331.9755°
Arg perigee
117.8684°
Mean anomaly
242.3799°
Rev number
5,112

§ Raw data

2025-234B1 66054U 25234B   26263.42976444  .00003279  00000+0  14715-3 0  99972 66054  97.4674 331.9755 0012300 117.8684 242.3799 15.21838518 51121

JSON: /api/v1/satellites/66054 · /tle

For live sub-satellite position, see the globe view (requires WebGL).

§ Visibility from observer

Set your observer location to see the next 7 days of passes ≥ 10°. The values pass through the URL so the page stays shareable.

No JS? Fill the form by hand. The geolocation button needs JavaScript.

§ Radio — SatNOGS DB

ModeDescriptionDownlinkUplink
FM S-band telemetry 2.231 GHz

1 transmitter · refreshed weekly from db.satnogs.org